Time,TemperatureF,DewpointF,PressureIn,WindDirection,WindDirectionDegrees,WindSpeedMPH,WindSpeedGustMPH,Humidity,HourlyPrecipIn,Conditions,Clouds,dailyrainin,SoftwareType,DateUTC
2013-07-30 00:00:00,73.3,69.5,29.93,SSE,157,0.0,0.0,88,0.15,,,0.18,Wunderground v.1.15,2013-07-30 05:00:00,
2013-07-30 00:05:00,73.2,69.8,29.94,East,87,1.0,2.0,89,0.15,,,0.00,Wunderground v.1.15,2013-07-30 05:05:00,
2013-07-30 00:10:00,73.2,69.8,29.94,ESE,102,1.0,3.0,89,0.12,,,0.01,Wunderground v.1.15,2013-07-30 05:10:00,
2013-07-30 00:20:00,73.0,69.6,29.95,ESE,123,1.0,1.0,89,0.19,,,0.04,Wunderground v.1.15,2013-07-30 05:20:00,
2013-07-30 00:30:00,72.8,69.7,29.95,East,86,1.0,1.0,90,0.33,,,0.09,Wunderground v.1.15,2013-07-30 05:30:00,
2013-07-30 00:40:00,72.7,69.6,29.94,SE,132,1.0,5.0,90,0.37,,,0.14,Wunderground v.1.15,2013-07-30 05:40:00,
2013-07-30 00:50:00,72.5,69.7,29.94,SE,138,1.0,1.0,91,0.15,,,0.17,Wunderground v.1.15,2013-07-30 05:50:00,
2013-07-30 00:55:00,72.3,69.5,29.94,SSE,161,0.0,3.0,91,0.20,,,0.19,Wunderground v.1.15,2013-07-30 05:55:00,
2013-07-30 01:05:00,72.3,69.5,29.95,SE,133,0.0,0.0,91,0.72,,,0.28,Wunderground v.1.15,2013-07-30 06:05:00,
2013-07-30 01:15:00,72.3,69.8,29.95,South,178,1.0,2.0,92,0.35,,,0.43,Wunderground v.1.15,2013-07-30 06:15:00,
2013-07-30 01:20:00,72.3,69.8,29.95,SE,129,1.0,1.0,92,0.81,,,0.51,Wunderground v.1.15,2013-07-30 06:20:00,
2013-07-30 01:30:00,72.1,69.6,29.95,South,170,0.0,0.0,92,0.89,,,0.71,Wunderground v.1.15,2013-07-30 06:30:00,
2013-07-30 01:40:00,72.1,69.6,29.95,East,101,0.0,2.0,92,0.71,,,0.86,Wunderground v.1.15,2013-07-30 06:40:00,
2013-07-30 01:45:00,72.1,70.0,29.95,East,101,0.0,2.0,93,0.84,,,0.93,Wunderground v.1.15,2013-07-30 06:45:00,
2013-07-30 01:55:00,72.1,70.0,29.94,ENE,57,1.0,1.0,93,0.27,,,1.01,Wunderground v.1.15,2013-07-30 06:55:00,
2013-07-30 02:05:00,72.0,69.9,29.93,East,82,1.0,3.0,93,0.15,,,1.04,Wunderground v.1.15,2013-07-30 07:05:00,
2013-07-30 02:10:00,72.0,69.9,29.93,SSE,159,1.0,3.0,93,0.13,,,1.05,Wunderground v.1.15,2013-07-30 07:10:00,
2013-07-30 02:20:00,71.8,69.7,29.92,ESE,103,1.0,1.0,93,0.12,,,1.07,Wunderground v.1.15,2013-07-30 07:20:00,
2013-07-30 02:30:00,71.8,69.7,29.92,ESE,103,1.0,1.0,93,0.05,,,1.08,Wunderground v.1.15,2013-07-30 07:30:00,
2013-07-30 02:40:00,71.6,69.5,29.92,ESE,119,0.0,0.0,93,0.15,,,1.11,Wunderground v.1.15,2013-07-30 07:40:00,
2013-07-30 02:50:00,71.6,69.5,29.90,ESE,113,2.0,2.0,93,0.16,,,1.12,Wunderground v.1.15,2013-07-30 07:50:00,
2013-07-30 02:55:00,71.6,69.5,29.90,East,94,2.0,2.0,93,0.12,,,1.13,Wunderground v.1.15,2013-07-30 07:55:00,
2013-07-30 03:05:00,71.5,69.4,29.90,East,80,2.0,4.0,93,0.09,,,1.15,Wunderground v.1.15,2013-07-30 08:05:00,
2013-07-30 03:15:00,71.6,69.5,29.90,NNE,22,2.0,3.0,93,0.15,,,1.17,Wunderground v.1.15,2013-07-30 08:15:00,
2013-07-30 03:25:00,71.5,69.4,29.91,WSW,252,2.0,4.0,93,4.30,,,1.32,Wunderground v.1.15,2013-07-30 08:25:00,
2013-07-30 03:30:00,70.8,68.7,29.91,NW,307,2.0,2.0,93,5.10,,,1.68,Wunderground v.1.15,2013-07-30 08:30:00,
2013-07-30 03:40:00,70.1,68.0,29.91,NW,311,1.0,1.0,93,0.58,,,1.94,Wunderground v.1.15,2013-07-30 08:40:00,
2013-07-30 03:50:00,70.1,68.0,29.92,NW,311,0.0,0.0,93,0.89,,,2.13,Wunderground v.1.15,2013-07-30 08:50:00,
2013-07-30 04:00:00,69.9,67.8,29.92,NW,306,1.0,1.0,93,2.10,,,2.28,Wunderground v.1.15,2013-07-30 09:00:00,
2013-07-30 04:05:00,69.9,67.8,29.90,SSE,168,1.0,1.0,93,0.23,,,2.33,Wunderground v.1.15,2013-07-30 09:05:00,
2013-07-30 04:14:00,69.9,67.8,29.90,ENE,74,0.0,1.0,93,0.09,,,2.34,Wunderground v.1.15,2013-07-30 09:14:00,
2013-07-30 04:20:00,69.9,68.1,29.91,ENE,74,0.0,0.0,94,0.05,,,2.34,Wunderground v.1.15,2013-07-30 09:20:00,
2013-07-30 04:30:00,69.9,68.1,29.91,ENE,74,0.0,0.0,94,0.11,,,2.36,Wunderground v.1.15,2013-07-30 09:30:00,
2013-07-30 04:40:00,70.1,68.3,29.90,ENE,74,0.0,0.0,94,0.11,,,2.37,Wunderground v.1.15,2013-07-30 09:40:00,
2013-07-30 04:50:00,70.1,68.3,29.90,ENE,74,0.0,0.0,94,0.20,,,2.40,Wunderground v.1.15,2013-07-30 09:50:00,
2013-07-30 05:00:00,70.4,68.6,29.90,ESE,108,0.0,0.0,94,0.16,,,2.43,Wunderground v.1.15,2013-07-30 10:00:00,
2013-07-30 05:05:00,70.4,68.6,29.90,ESE,108,0.0,0.0,94,0.16,,,2.44,Wunderground v.1.15,2013-07-30 10:05:00,
2013-07-30 05:10:00,70.4,68.6,29.90,ESE,108,0.0,0.0,94,0.07,,,2.44,Wunderground v.1.15,2013-07-30 10:10:00,
2013-07-30 05:20:00,70.6,68.8,29.90,ESE,108,1.0,1.0,94,0.06,,,2.45,Wunderground v.1.15,2013-07-30 10:20:00,
2013-07-30 05:30:00,70.9,69.1,29.90,SSE,151,1.0,5.0,94,0.06,,,2.46,Wunderground v.1.15,2013-07-30 10:30:00,
2013-07-30 05:40:00,71.3,69.5,29.90,SE,136,1.0,1.0,94,0.05,,,2.47,Wunderground v.1.15,2013-07-30 10:40:00,
2013-07-30 05:50:00,71.5,69.7,29.91,SE,136,0.0,0.0,94,0.00,,,2.47,Wunderground v.1.15,2013-07-30 10:50:00,
2013-07-30 06:00:00,71.5,69.7,29.91,SE,136,0.0,0.0,94,0.00,,,2.48,Wunderground v.1.15,2013-07-30 11:00:00,
2013-07-30 06:05:00,71.5,69.7,29.92,SE,136,0.0,0.0,94,0.00,,,2.48,Wunderground v.1.15,2013-07-30 11:05:00,
2013-07-30 06:10:00,71.5,69.7,29.92,SE,136,0.0,0.0,94,0.05,,,2.49,Wunderground v.1.15,2013-07-30 11:10:00,
2013-07-30 06:19:00,71.6,69.8,29.92,SE,136,0.0,0.0,94,0.07,,,2.51,Wunderground v.1.15,2013-07-30 11:19:00,
2013-07-30 06:25:00,71.6,69.8,29.92,SE,136,0.0,0.0,94,0.14,,,2.52,Wunderground v.1.15,2013-07-30 11:25:00,
2013-07-30 06:30:00,71.6,69.8,29.92,SE,136,0.0,0.0,94,0.09,,,2.53,Wunderground v.1.15,2013-07-30 11:30:00,
2013-07-30 06:39:00,71.5,69.7,29.92,SE,136,0.0,0.0,94,0.09,,,2.54,Wunderground v.1.15,2013-07-30 11:39:00,
2013-07-30 06:45:00,71.5,69.7,29.92,SE,136,0.0,0.0,94,0.05,,,2.54,Wunderground v.1.15,2013-07-30 11:45:00,
2013-07-30 06:55:00,71.5,69.7,29.92,SE,139,1.0,1.0,94,0.04,,,2.55,Wunderground v.1.15,2013-07-30 11:55:00,
2013-07-30 07:05:00,71.6,69.8,29.92,SSE,157,1.0,2.0,94,0.04,,,2.55,Wunderground v.1.15,2013-07-30 12:05:00,
2013-07-30 07:10:00,71.6,69.8,29.92,SSE,157,1.0,1.0,94,0.00,,,2.55,Wunderground v.1.15,2013-07-30 12:10:00,
2013-07-30 07:20:00,71.6,69.8,29.92,SSE,157,1.0,3.0,94,0.00,,,2.55,Wunderground v.1.15,2013-07-30 12:20:00,
2013-07-30 07:30:00,71.5,69.7,29.92,SSW,192,2.0,2.0,94,0.00,,,2.55,Wunderground v.1.15,2013-07-30 12:30:00,
2013-07-30 07:39:00,71.5,69.7,29.92,SSE,165,1.0,1.0,94,0.00,,,2.55,Wunderground v.1.15,2013-07-30 12:39:00,
2013-07-30 07:45:00,71.3,69.5,29.92,West,280,2.0,2.0,94,0.00,,,2.55,Wunderground v.1.15,2013-07-30 12:45:00,
2013-07-30 07:50:00,71.3,69.5,29.92,SSE,168,2.0,2.0,94,0.00,,,2.55,Wunderground v.1.15,2013-07-30 12:50:00,
2013-07-30 08:00:00,71.1,69.3,29.92,SE,144,1.0,3.0,94,0.00,,,2.55,Wunderground v.1.15,2013-07-30 13:00:00,
2013-07-30 08:05:00,71.1,69.3,29.92,South,189,1.0,5.0,94,0.00,,,2.55,Wunderground v.1.15,2013-07-30 13:05:00,
2013-07-30 08:10:00,71.1,69.0,29.92,South,182,1.0,1.0,93,0.00,,,2.56,Wunderground v.1.15,2013-07-30 13:10:00,
2013-07-30 08:20:00,71.3,69.2,29.93,SSW,197,1.0,3.0,93,0.00,,,2.56,Wunderground v.1.15,2013-07-30 13:20:00,
2013-07-30 08:30:00,71.3,69.2,29.93,SSE,155,2.0,2.0,93,0.00,,,2.56,Wunderground v.1.15,2013-07-30 13:30:00,
2013-07-30 08:40:00,71.6,69.5,29.92,South,180,1.0,1.0,93,0.00,,,2.56,Wunderground v.1.15,2013-07-30 13:40:00,
2013-07-30 08:50:00,71.6,69.5,29.92,East,80,1.0,1.0,93,0.00,,,2.56,Wunderground v.1.15,2013-07-30 13:50:00,
2013-07-30 08:55:00,71.6,69.5,29.92,South,174,1.0,2.0,93,0.00,,,2.56,Wunderground v.1.15,2013-07-30 13:55:00,
2013-07-30 09:05:00,71.8,69.7,29.92,SE,143,1.0,1.0,93,0.00,,,2.56,Wunderground v.1.15,2013-07-30 14:05:00,
2013-07-30 09:15:00,72.3,70.2,29.92,SSE,157,0.0,1.0,93,0.00,,,2.56,Wunderground v.1.15,2013-07-30 14:15:00,
2013-07-30 09:25:00,72.7,70.6,29.92,South,174,1.0,3.0,93,0.00,,,2.56,Wunderground v.1.15,2013-07-30 14:25:00,
2013-07-30 09:35:00,72.7,70.6,29.92,SSW,211,2.0,2.0,93,0.00,,,2.56,Wunderground v.1.15,2013-07-30 14:35:00,
2013-07-30 09:45:00,72.8,70.7,29.92,SSW,192,1.0,2.0,93,0.00,,,2.56,Wunderground v.1.15,2013-07-30 14:45:00,
2013-07-30 09:55:00,72.8,70.7,29.92,SSE,159,1.0,2.0,93,0.00,,,2.56,Wunderground v.1.15,2013-07-30 14:55:00,
2013-07-30 10:05:00,73.2,71.1,29.92,SSE,159,1.0,2.0,93,0.00,,,2.56,Wunderground v.1.15,2013-07-30 15:05:00,
2013-07-30 10:15:00,73.5,71.4,29.92,SSE,159,0.0,2.0,93,0.00,,,2.56,Wunderground v.1.15,2013-07-30 15:15:00,
2013-07-30 10:25:00,74.0,71.5,29.92,SSE,159,1.0,3.0,92,0.00,,,2.56,Wunderground v.1.15,2013-07-30 15:25:00,
2013-07-30 10:35:00,74.4,71.9,29.92,South,182,1.0,3.0,92,0.00,,,2.56,Wunderground v.1.15,2013-07-30 15:35:00,
2013-07-30 10:45:00,74.9,71.8,29.92,SSE,161,2.0,2.0,90,0.00,,,2.56,Wunderground v.1.15,2013-07-30 15:45:00,
2013-07-30 10:55:00,75.1,71.3,29.92,South,184,2.0,4.0,88,0.00,,,2.56,Wunderground v.1.15,2013-07-30 15:55:00,
2013-07-30 11:05:00,75.1,71.0,29.93,South,180,3.0,3.0,87,0.00,,,2.56,Wunderground v.1.15,2013-07-30 16:05:00,
2013-07-30 11:15:00,74.9,70.4,29.93,SW,217,3.0,6.0,86,0.00,,,2.56,Wunderground v.1.15,2013-07-30 16:15:00,
2013-07-30 11:25:00,74.4,69.6,29.94,SSW,196,5.0,9.0,85,0.00,,,2.56,Wunderground v.1.15,2013-07-30 16:25:00,
2013-07-30 11:35:00,74.6,70.1,29.94,SSW,197,3.0,5.0,86,0.00,,,2.56,Wunderground v.1.15,2013-07-30 16:35:00,
2013-07-30 11:45:00,74.2,69.4,29.94,SSW,204,4.0,4.0,85,0.00,,,2.56,Wunderground v.1.15,2013-07-30 16:45:00,
2013-07-30 11:55:00,73.2,68.4,29.94,SSE,162,3.0,4.0,85,0.00,,,2.56,Wunderground v.1.15,2013-07-30 16:55:00,
2013-07-30 12:05:00,72.5,68.1,29.94,SW,221,2.0,4.0,86,0.00,,,2.56,Wunderground v.1.15,2013-07-30 17:05:00,
2013-07-30 12:15:00,72.3,68.2,29.94,South,170,2.0,4.0,87,0.00,,,2.56,Wunderground v.1.15,2013-07-30 17:15:00,
2013-07-30 12:25:00,72.7,68.3,29.94,SSW,205,2.0,2.0,86,0.00,,,2.56,Wunderground v.1.15,2013-07-30 17:25:00,
2013-07-30 12:35:00,72.7,68.6,29.94,South,169,2.0,3.0,87,0.00,,,2.56,Wunderground v.1.15,2013-07-30 17:35:00,
2013-07-30 12:45:00,72.8,69.0,29.94,SSE,165,1.0,1.0,88,0.00,,,2.56,Wunderground v.1.15,2013-07-30 17:45:00,
2013-07-30 12:54:00,73.0,69.6,29.93,SSE,165,1.0,1.0,89,0.00,,,2.57,Wunderground v.1.15,2013-07-30 17:54:00,
2013-07-30 13:00:00,73.0,69.6,29.93,SSE,165,0.0,0.0,89,0.08,,,2.58,Wunderground v.1.15,2013-07-30 18:00:00,
2013-07-30 13:05:00,73.0,69.6,29.92,SSE,165,0.0,1.0,89,0.14,,,2.59,Wunderground v.1.15,2013-07-30 18:05:00,
2013-07-30 13:10:00,73.0,69.6,29.92,SSE,165,0.0,0.0,89,0.10,,,2.59,Wunderground v.1.15,2013-07-30 18:10:00,
2013-07-30 13:20:00,73.3,70.2,29.92,SSE,165,0.0,2.0,90,0.04,,,2.59,Wunderground v.1.15,2013-07-30 18:20:00,
2013-07-30 13:30:00,73.5,70.4,29.92,SSE,165,1.0,1.0,90,0.00,,,2.59,Wunderground v.1.15,2013-07-30 18:30:00,
2013-07-30 13:39:00,74.6,71.5,29.92,South,173,1.0,2.0,90,0.00,,,2.59,Wunderground v.1.15,2013-07-30 18:39:00,
2013-07-30 13:45:00,75.3,72.2,29.92,SSW,206,2.0,2.0,90,0.00,,,2.59,Wunderground v.1.15,2013-07-30 18:45:00,
2013-07-30 13:50:00,75.6,71.8,29.92,South,173,2.0,2.0,88,0.00,,,2.59,Wunderground v.1.15,2013-07-30 18:50:00,
2013-07-30 14:00:00,76.0,71.5,29.92,South,184,2.0,2.0,86,0.00,,,2.59,Wunderground v.1.15,2013-07-30 19:00:00,
2013-07-30 14:05:00,76.1,71.3,29.91,South,184,1.0,2.0,85,0.00,,,2.59,Wunderground v.1.15,2013-07-30 19:05:00,
2013-07-30 14:10:00,76.3,71.8,29.91,South,184,0.0,0.0,86,0.00,,,2.59,Wunderground v.1.15,2013-07-30 19:10:00,
2013-07-30 14:20:00,76.0,71.2,29.91,South,183,1.0,1.0,85,0.00,,,2.59,Wunderground v.1.15,2013-07-30 19:20:00,
2013-07-30 14:25:00,76.0,70.8,29.91,South,175,1.0,1.0,84,0.00,,,2.59,Wunderground v.1.15,2013-07-30 19:25:00,
2013-07-30 14:35:00,76.1,71.3,29.90,South,174,0.0,1.0,85,0.00,,,2.59,Wunderground v.1.15,2013-07-30 19:35:00,
2013-07-30 14:45:00,76.1,71.3,29.90,South,174,0.0,0.0,85,0.00,,,2.59,Wunderground v.1.15,2013-07-30 19:45:00,
2013-07-30 14:55:00,76.1,71.3,29.90,South,175,0.0,0.0,85,0.00,,,2.59,Wunderground v.1.15,2013-07-30 19:55:00,
2013-07-30 15:00:00,76.1,71.3,29.90,South,175,0.0,0.0,85,0.00,,,2.59,Wunderground v.1.15,2013-07-30 20:00:00,
2013-07-30 15:05:00,76.1,70.9,29.90,South,174,0.0,0.0,84,0.00,,,2.59,Wunderground v.1.15,2013-07-30 20:05:00,
2013-07-30 15:15:00,76.3,71.5,29.90,South,174,0.0,0.0,85,0.00,,,2.59,Wunderground v.1.15,2013-07-30 20:15:00,
2013-07-30 15:20:00,76.5,71.7,29.90,South,174,0.0,0.0,85,0.00,,,2.59,Wunderground v.1.15,2013-07-30 20:20:00,
2013-07-30 15:30:00,76.5,71.7,29.90,South,173,0.0,0.0,85,0.00,,,2.59,Wunderground v.1.15,2013-07-30 20:30:00,
2013-07-30 15:39:00,77.2,72.3,29.89,South,174,0.0,0.0,85,0.00,,,2.59,Wunderground v.1.15,2013-07-30 20:39:00,
2013-07-30 15:45:00,77.6,72.7,29.89,South,173,0.0,0.0,85,0.00,,,2.59,Wunderground v.1.15,2013-07-30 20:45:00,
2013-07-30 15:55:00,78.1,72.9,29.89,East,85,0.0,0.0,84,0.00,,,2.59,Wunderground v.1.15,2013-07-30 20:55:00,
2013-07-30 16:05:00,78.3,73.1,29.88,SE,146,1.0,1.0,84,0.00,,,2.59,Wunderground v.1.15,2013-07-30 21:05:00,
2013-07-30 16:15:00,79.2,73.9,29.88,SE,146,0.0,1.0,84,0.00,,,2.59,Wunderground v.1.15,2013-07-30 21:15:00,
2013-07-30 16:20:00,79.6,73.3,29.88,SE,143,0.0,0.0,81,0.00,,,2.59,Wunderground v.1.15,2013-07-30 21:20:00,
2013-07-30 16:25:00,79.6,73.3,29.88,SSE,164,0.0,1.0,81,0.00,,,2.59,Wunderground v.1.15,2013-07-30 21:25:00,
2013-07-30 16:35:00,79.8,73.4,29.88,SSE,164,0.0,0.0,81,0.00,,,2.59,Wunderground v.1.15,2013-07-30 21:35:00,
2013-07-30 16:40:00,79.8,73.8,29.88,SSE,160,0.0,0.0,82,0.00,,,2.59,Wunderground v.1.15,2013-07-30 21:40:00,
2013-07-30 16:50:00,79.8,73.4,29.88,SE,146,0.0,0.0,81,0.00,,,2.59,Wunderground v.1.15,2013-07-30 21:50:00,
2013-07-30 17:00:00,80.1,73.7,29.88,SSE,151,0.0,0.0,81,0.00,,,2.59,Wunderground v.1.15,2013-07-30 22:00:00,
2013-07-30 17:05:00,80.5,74.1,29.88,SSE,151,0.0,0.0,81,0.00,,,2.59,Wunderground v.1.15,2013-07-30 22:05:00,
2013-07-30 17:10:00,80.5,74.1,29.88,SSE,151,0.0,0.0,81,0.00,,,2.59,Wunderground v.1.15,2013-07-30 22:10:00,
2013-07-30 17:19:00,80.5,73.8,29.88,SSE,151,0.0,0.0,80,0.00,,,2.59,Wunderground v.1.15,2013-07-30 22:19:00,
2013-07-30 17:25:00,80.5,73.8,29.88,SSE,151,0.0,0.0,80,0.00,,,2.59,Wunderground v.1.15,2013-07-30 22:25:00,
2013-07-30 17:35:00,80.9,73.4,29.87,SSE,151,0.0,0.0,78,0.00,,,2.59,Wunderground v.1.15,2013-07-30 22:35:00,
2013-07-30 17:45:00,81.2,73.7,29.87,SSE,151,0.0,0.0,78,0.00,,,2.59,Wunderground v.1.15,2013-07-30 22:45:00,
2013-07-30 17:55:00,81.6,73.3,29.87,SSE,151,0.0,0.0,76,0.00,,,2.59,Wunderground v.1.15,2013-07-30 22:55:00,
2013-07-30 18:05:00,81.6,72.9,29.87,SSE,151,0.0,0.0,75,0.00,,,2.59,Wunderground v.1.15,2013-07-30 23:05:00,
2013-07-30 18:15:00,81.4,73.1,29.87,SSE,151,0.0,0.0,76,0.00,,,2.59,Wunderground v.1.15,2013-07-30 23:15:00,
2013-07-30 18:25:00,81.1,73.6,29.87,SSE,151,0.0,1.0,78,0.00,,,2.59,Wunderground v.1.15,2013-07-30 23:25:00,
2013-07-30 18:30:00,80.9,73.8,29.87,SSE,151,0.0,0.0,79,0.00,,,2.59,Wunderground v.1.15,2013-07-30 23:30:00,
2013-07-30 18:35:00,80.7,73.6,29.87,SSE,151,0.0,0.0,79,0.00,,,2.59,Wunderground v.1.15,2013-07-30 23:35:00,
2013-07-30 18:45:00,80.3,73.9,29.87,SSE,151,0.0,1.0,81,0.00,,,2.59,Wunderground v.1.15,2013-07-30 23:45:00,
2013-07-30 18:55:00,79.9,74.3,29.87,SSE,151,0.0,0.0,83,0.00,,,2.59,Wunderground v.1.15,2013-07-30 23:55:00,
2013-07-30 19:05:00,79.4,74.1,29.87,South,169,0.0,0.0,84,0.00,,,2.59,Wunderground v.1.15,2013-07-31 00:05:00,
2013-07-30 19:15:00,79.4,74.5,29.87,South,170,0.0,0.0,85,0.00,,,2.60,Wunderground v.1.15,2013-07-31 00:15:00,
2013-07-30 19:25:00,79.2,73.6,29.87,South,175,0.0,0.0,83,0.00,,,2.60,Wunderground v.1.15,2013-07-31 00:25:00,
2013-07-30 19:30:00,79.0,73.4,29.87,South,175,0.0,0.0,83,0.00,,,2.60,Wunderground v.1.15,2013-07-31 00:30:00,
2013-07-30 19:40:00,78.8,73.2,29.87,South,175,0.0,0.0,83,0.00,,,2.60,Wunderground v.1.15,2013-07-31 00:40:00,
2013-07-30 19:50:00,78.5,73.6,29.87,South,175,0.0,0.0,85,0.00,,,2.60,Wunderground v.1.15,2013-07-31 00:50:00,
2013-07-30 20:00:00,78.1,73.6,29.87,South,175,0.0,0.0,86,0.00,,,2.60,Wunderground v.1.15,2013-07-31 01:00:00,
2013-07-30 20:05:00,77.9,73.4,29.87,South,175,0.0,0.0,86,0.00,,,2.60,Wunderground v.1.15,2013-07-31 01:05:00,
2013-07-30 20:15:00,77.9,73.7,29.87,South,175,0.0,0.0,87,0.00,,,2.60,Wunderground v.1.15,2013-07-31 01:15:00,
2013-07-30 20:25:00,77.7,73.9,29.87,South,175,0.0,0.0,88,0.00,,,2.60,Wunderground v.1.15,2013-07-31 01:25:00,
2013-07-30 20:35:00,77.2,73.4,29.88,South,175,0.0,0.0,88,0.00,,,2.60,Wunderground v.1.15,2013-07-31 01:35:00,
2013-07-30 20:45:00,77.0,73.5,29.88,South,175,0.0,0.0,89,0.00,,,2.60,Wunderground v.1.15,2013-07-31 01:45:00,
2013-07-30 20:54:00,76.8,73.6,29.88,South,175,0.0,0.0,90,0.00,,,2.60,Wunderground v.1.15,2013-07-31 01:54:00,
2013-07-30 21:00:00,76.7,73.5,29.88,South,175,0.0,0.0,90,0.00,,,2.60,Wunderground v.1.15,2013-07-31 02:00:00,
2013-07-30 21:05:00,76.7,73.5,29.89,South,175,0.0,0.0,90,0.00,,,2.60,Wunderground v.1.15,2013-07-31 02:05:00,
2013-07-30 21:10:00,76.5,73.3,29.89,South,175,0.0,0.0,90,0.00,,,2.60,Wunderground v.1.15,2013-07-31 02:10:00,
2013-07-30 21:20:00,76.1,73.0,29.89,South,175,0.0,0.0,90,0.00,,,2.60,Wunderground v.1.15,2013-07-31 02:20:00,
2013-07-30 21:30:00,75.6,72.8,29.89,South,175,0.0,0.0,91,0.00,,,2.60,Wunderground v.1.15,2013-07-31 02:30:00,
2013-07-30 21:40:00,75.4,72.6,29.89,South,175,0.0,0.0,91,0.00,,,2.60,Wunderground v.1.15,2013-07-31 02:40:00,
2013-07-30 21:50:00,75.1,72.3,29.90,South,175,0.0,0.0,91,0.00,,,2.60,Wunderground v.1.15,2013-07-31 02:50:00,
2013-07-30 21:55:00,74.9,72.1,29.90,South,175,0.0,0.0,91,0.00,,,2.60,Wunderground v.1.15,2013-07-31 02:55:00,
2013-07-30 22:05:00,74.9,72.4,29.90,South,175,0.0,0.0,92,0.00,,,2.60,Wunderground v.1.15,2013-07-31 03:05:00,
2013-07-30 22:15:00,74.9,72.4,29.90,South,175,0.0,0.0,92,0.00,,,2.60,Wunderground v.1.15,2013-07-31 03:15:00,
2013-07-30 22:25:00,74.7,72.2,29.91,South,175,0.0,0.0,92,0.00,,,2.60,Wunderground v.1.15,2013-07-31 03:25:00,
2013-07-30 22:34:00,74.4,71.9,29.91,South,175,0.0,0.0,92,0.00,,,2.60,Wunderground v.1.15,2013-07-31 03:34:00,
2013-07-30 22:40:00,74.2,71.7,29.91,South,175,0.0,0.0,92,0.00,,,2.60,Wunderground v.1.15,2013-07-31 03:40:00,
2013-07-30 22:49:00,74.4,72.2,29.92,South,175,0.0,0.0,93,0.00,,,2.60,Wunderground v.1.15,2013-07-31 03:49:00,
2013-07-30 22:55:00,74.6,72.4,29.92,South,175,0.0,0.0,93,0.00,,,2.60,Wunderground v.1.15,2013-07-31 03:55:00,
2013-07-30 23:05:00,74.9,72.7,29.92,South,175,0.0,0.0,93,0.00,,,2.60,Wunderground v.1.15,2013-07-31 04:05:00,
2013-07-30 23:10:00,74.9,72.7,29.92,South,175,0.0,0.0,93,0.00,,,2.60,Wunderground v.1.15,2013-07-31 04:10:00,
2013-07-30 23:15:00,74.7,72.5,29.92,South,175,0.0,0.0,93,0.00,,,2.60,Wunderground v.1.15,2013-07-31 04:15:00,
2013-07-30 23:25:00,74.4,72.2,29.92,South,175,0.0,0.0,93,0.00,,,2.60,Wunderground v.1.15,2013-07-31 04:25:00,
2013-07-30 23:30:00,74.6,72.4,29.92,South,175,0.0,0.0,93,0.00,,,2.60,Wunderground v.1.15,2013-07-31 04:30:00,
2013-07-30 23:40:00,74.6,72.4,29.92,South,175,0.0,0.0,93,0.00,,,2.60,Wunderground v.1.15,2013-07-31 04:40:00,
2013-07-30 23:44:00,74.6,72.4,29.92,South,175,0.0,0.0,93,0.00,,,2.60,Wunderground v.1.15,2013-07-31 04:44:00,
2013-07-30 23:50:00,74.4,72.2,29.92,South,175,0.0,0.0,93,0.00,,,2.60,Wunderground v.1.15,2013-07-31 04:50:00,